Simultaneous Nadir Overpasses (SNOs) Predictions

Prediction of SNOs between LANDSAT-8 and NPP Satellite Orbit:

Table of predicted SNOs for the next 14.0 days since TLE Epoch: 7/24/2016
Index Date (LANDSAT-8) Time (LANDSAT-8) Lat,Lon (LANDSAT-8) SZA (LANDSAT-8 ) Date (NPP) Time (NPP) Lat,Lon (NPP) SZA (NPP ) Distance(km) Time Diff (sec)
1 07/24/2016 22:25:26 -70.15, 20.19 129.48 07/24/2016 22:24:43 -70.17, 20.24 129.45 3.00 43
2 07/24/2016 23:14:53 70.05,-172.31 50.44 07/24/2016 23:15:27 70.07,-172.29 50.45 1.75 34
3 07/27/2016 13:52:15 70.85, -30.53 51.78 07/27/2016 13:51:07 70.90, -32.47 51.91 71.07 68
4 07/27/2016 14:41:56 -70.13, 136.05 128.90 07/27/2016 14:41:36 -70.12, 136.10 128.91 3.02 20
5 07/27/2016 15:31:23 70.03, -56.46 51.02 07/27/2016 15:32:20 70.01, -56.43 50.99 2.14 57
6 07/30/2016 06:08:55 70.22, 84.42 51.81 07/30/2016 06:07:47 70.22, 84.40 51.82 0.61 68
7 07/30/2016 06:58:25 -70.11,-108.11 128.28 07/30/2016 06:58:29 -70.11,-108.12 128.28 0.50 4
8 07/30/2016 07:47:57 69.73, 59.00 51.37 07/30/2016 07:49:08 69.75, 59.74 51.35 28.31 71
9 08/01/2016 22:25:25 70.19,-159.75 52.45 08/01/2016 22:24:40 70.17,-159.75 52.44 2.40 45
10 08/01/2016 23:14:55 -70.08, 7.74 127.64 08/01/2016 23:15:22 -70.06, 7.74 127.67 2.99 27
11 08/04/2016 13:52:13 -71.08, 149.84 126.00 08/04/2016 13:51:07 -71.15, 147.12 125.83 98.01 66
12 08/04/2016 14:41:55 70.15, -43.92 53.12 08/04/2016 14:41:34 70.17, -43.98 53.15 2.99 21
13 08/04/2016 15:31:25 -70.05, 123.57
